Starlink 4147

operational
NORAD ID: 53256 Int'l Des: 2022-086 Owner: SPXS Country: US Constellation: starlink
LEOCIRCULAR

About Starlink 4147

Description loading...

Live Position

Loading 3D Globe...

Upcoming Passes

Altitude History

Altitude vs Time

uPlot chart will show altitude changes over time

Two-Line Element Set

1 53256U 22086Q 25347.05290039 .00000646 00000-0 58658-4 0 9990
2 53256 53.2167 223.0499 0001549 86.6192 273.4978 15.08833914187982
Epoch: Dec 13, 2025 • Age: 30 hours

Current Status

Altitude 544.3 km
Velocity 7.59 km/s
Sub-Earth Point -15.67°S, 11.32°E
Launch Date Jul 24, 2022
Age 3.3 years
Type internet

Technical Details

Classification Payload
Mass 297.00 kg
Dry Mass 275.00 kg
Total Mass 297.00 kg
Length 0.20 m
Diameter 2.80 m
Span 9.00 m
Shape Box + pan
Manufacturer SPXS
Bus Type Starlink
Phase Status In Orbit
Owner/State SPXS/US

Large Constellations

Loading constellations...